Theta_e
349 349 350 350 350 350 350 350 350 350 349 349 349 349 349 348 349 348 348 348 347 349 350 349 349 350 346 348 346 345 345 345 345 345 345 345 344 343 343 343 342 341 342 341 339 339 339 339 338 337 338 340 342 345 344 342 342 341 340 339 339 338
348 348 348 349 349 349 349 350 348 350 347 350 349 349 349 349 348 349 348 348 348 348 348 349 348 345 350 347 345 342 342 343 343 344 343 345 344 343 343 343 342 342 341 339 337 340 339 337 337 337 336 335 342 343 344 343 342 341 339 340 339 340
346 347 347 348 348 349 349 350 349 349 349 348 349 349 348 348 348 347 347 346 347 348 347 347 349 348 348 345 344 341 341 341 342 342 341 343 344 344 343 343 343 342 339 336 341 340 337 336 337 335 336 340 343 342 343 343 343 343 340 340 339 339
344 346 347 346 346 345 348 348 347 345 348 348 347 348 348 348 347 347 346 348 348 347 346 347 343 345 344 348 345 342 341 339 339 339 340 342 343 343 344 343 343 341 340 342 341 338 336 336 336 339 339 338 340 342 342 343 341 342 342 339 338 338
342 344 344 344 346 343 344 346 345 347 347 346 345 346 347 347 347 347 346 346 346 345 345 345 348 348 348 348 347 346 346 344 344 344 339 345 344 343 344 345 343 341 340 341 339 339 338 337 338 338 338 338 338 341 342 342 341 341 342 342 342 338
342 342 344 345 343 344 345 345 344 345 345 346 345 345 347 346 347 347 346 345 345 344 344 344 347 348 348 348 346 346 346 346 345 345 339 344 344 344 345 344 341 340 339 340 340 339 338 338 337 338 337 338 337 338 342 341 341 342 342 343 344 338
342 343 344 344 344 344 344 345 345 344 344 344 345 343 345 345 345 344 344 344 344 342 342 343 344 345 346 346 345 345 345 346 346 346 346 345 345 345 345 345 342 340 340 340 338 337 337 337 338 335 337 336 337 337 340 341 342 342 343 343 342 338
340 343 342 343 343 342 344 343 344 344 344 344 343 343 343 343 344 343 344 344 344 343 341 341 341 342 344 345 344 344 344 344 345 345 344 345 344 343 343 343 341 340 339 339 336 337 336 335 336 337 335 337 337 338 339 340 342 343 343 344 343 339
336 339 341 342 339 341 342 343 343 343 343 343 342 343 342 343 343 343 344 344 344 343 342 342 342 342 343 343 342 342 343 343 342 343 341 342 342 341 340 340 340 339 340 339 337 337 335 333 334 337 335 335 336 335 337 339 342 342 342 342 343 341
338 340 340 339 340 341 341 342 341 343 343 343 343 342 342 343 343 344 343 343 344 344 343 343 342 341 342 341 341 342 341 340 340 341 342 341 342 341 339 339 339 339 337 337 335 336 335 333 332 335 334 334 335 335 337 337 339 340 342 343 344 342
339 339 340 338 339 340 341 340 340 342 342 342 341 341 341 342 342 344 345 344 340 340 341 341 340 339 342 341 341 340 341 341 340 341 343 343 342 340 341 340 339 338 337 336 335 336 333 333 332 332 334 332 333 335 335 338 338 339 340 342 343 343
339 340 341 338 340 338 339 339 340 340 341 342 342 341 341 342 344 344 344 342 338 338 337 334 336 338 341 340 340 340 339 340 339 340 342 341 342 341 340 339 339 339 339 338 337 337 334 333 332 332 333 332 333 334 334 337 337 338 338 342 341 343
340 341 341 340 339 340 340 339 340 340 340 341 341 341 340 341 341 338 336 332 333 334 336 335 336 335 334 334 336 336 335 337 338 339 340 341 341 341 340 339 339 339 338 337 337 333 332 335 334 334 335 333 334 332 334 335 338 339 338 340 341 341
342 341 341 341 341 340 340 341 341 341 341 340 340 340 341 339 336 334 336 336 336 335 335 333 333 333 332 332 331 332 334 335 336 336 336 338 338 338 338 338 338 337 335 335 334 332 332 333 332 333 334 334 335 337 336 334 337 338 340 339 340 342
343 342 342 341 340 340 341 341 341 340 340 340 339 339 339 339 336 334 335 335 335 336 333 334 333 333 333 332 332 333 336 336 336 336 336 337 338 338 337 336 336 337 335 335 332 331 332 333 333 332 334 337 333 333 336 336 337 337 337 340 342 341
341 342 342 341 342 341 341 340 340 340 340 340 339 339 339 338 336 336 335 334 335 335 334 333 333 334 333 333 333 333 337 337 336 336 337 337 337 336 336 336 336 336 332 330 330 331 333 333 334 333 334 336 337 336 335 336 337 336 337 339 338 341
342 341 340 341 340 339 339 339 338 338 338 339 338 337 337 338 337 337 336 336 337 337 336 336 336 336 336 334 335 336 336 335 336 336 336 336 336 336 336 334 334 335 334 333 330 329 331 333 333 333 334 334 335 335 335 335 336 337 335 338 339 338
339 339 340 340 339 337 336 336 336 337 337 336 335 337 337 338 338 337 337 336 337 336 336 335 335 335 336 335 335 335 335 335 334 333 334 335 336 335 335 336 333 332 332 332 332 330 330 332 331 331 333 334 334 334 333 334 335 336 337 336 337 337
340 340 339 338 336 334 333 333 335 335 335 334 334 335 337 337 337 337 336 336 335 335 335 334 334 334 334 335 334 334 335 334 334 333 334 335 334 334 333 334 332 329 331 331 331 331 332 333 333 333 332 333 334 332 333 335 336 335 337 337 337 336
341 339 337 335 335 334 335 334 333 334 333 333 334 334 336 335 336 335 335 334 333 334 334 334 333 333 334 334 334 334 333 333 333 333 333 333 333 333 332 331 332 330 328 329 328 329 330 333 333 332 332 333 334 334 332 332 334 333 334 336 337 337
339 338 336 334 334 334 333 333 334 335 333 332 332 334 334 335 336 335 335 334 334 333 333 333 332 332 333 333 332 332 332 333 333 331 331 331 333 332 332 333 332 331 330 328 327 329 329 331 331 328 331 331 332 331 333 334 331 332 332 334 336 336
338 339 338 337 336 335 336 335 334 332 332 332 332 332 331 334 335 335 335 333 334 333 333 334 332 332 333 333 332 331 332 332 331 330 330 331 331 331 331 332 331 328 330 329 329 331 331 332 326 324 323 324 326 330 332 332 331 331 332 332 334 335
337 336 337 336 335 332 331 332 333 331 330 326 327 331 330 330 331 331 332 333 333 334 334 333 333 332 332 332 332 332 331 332 332 331 330 331 332 331 330 331 330 330 328 330 329 331 330 331 328 329 329 325 321 320 327 329 332 332 332 333 333 332
335 336 334 334 333 332 330 329 330 329 328 329 325 327 327 327 328 328 327 328 329 331 333 334 332 332 332 331 332 332 331 331 331 332 331 331 330 330 330 329 330 331 330 328 326 327 330 330 330 328 321 321 321 322 318 323 326 329 331 331 332 331
333 333 333 332 331 330 328 327 327 327 327 326 327 327 327 325 328 327 326 327 326 327 329 331 332 333 333 331 331 331 331 330 330 331 331 331 330 330 330 331 330 330 330 329 327 327 328 329 326 327 326 321 319 317 319 322 324 326 327 327 329 329
331 331 331 331 331 330 328 327 326 325 325 324 323 324 323 323 324 325 323 325 324 325 327 330 332 334 333 331 330 329 330 330 330 331 331 331 330 330 330 330 330 331 329 329 329 326 325 328 328 329 328 327 324 319 321 323 323 319 325 324 326 328
330 330 330 330 330 330 329 330 331 330 329 326 323 323 324 326 325 323 324 324 324 326 326 331 332 334 335 334 332 330 330 331 331 332 331 331 330 329 329 329 330 331 330 329 329 326 325 326 327 327 328 328 326 327 328 325 320 323 319 319 319 321
329 328 328 329 329 331 329 329 329 328 328 326 325 322 324 324 325 323 323 323 324 325 326 329 331 331 332 333 334 333 333 333 332 332 331 330 328 328 329 328 329 330 330 330 329 328 327 326 323 325 327 327 326 325 327 327 327 324 321 315 313 318
327 327 327 329 328 328 329 328 328 327 325 325 325 324 324 324 322 323 322 323 324 323 325 326 326 328 329 330 331 332 333 332 332 331 330 329 329 329 329 329 329 329 329 329 330 329 327 325 325 324 324 323 325 324 323 324 325 327 321 316 313 315
325 324 325 326 326 326 326 327 327 328 326 324 324 324 324 323 322 323 322 322 323 324 325 325 325 325 326 327 328 329 329 330 331 330 328 329 328 329 330 330 330 330 330 329 329 330 327 326 326 326 327 325 322 321 321 320 321 322 322 320 313 312
322 322 323 323 324 324 325 327 328 328 327 325 324 324 322 322 321 322 321 321 322 323 324 324 325 325 325 325 327 327 328 328 329 328 326 326 328 327 328 328 327 328 328 329 328 327 326 327 325 324 325 325 325 323 322 319 318 317 316 314 312 311
322 322 322 322 324 324 324 325 327 329 328 327 326 324 323 322 321 321 321 320 320 322 322 323 324 324 324 324 326 326 326 326 325 326 325 326 326 326 325 324 324 324 323 323 325 326 326 324 323 323 324 324 322 322 320 318 318 320 317 316 315 312
322 323 323 324 324 324 324 324 325 327 328 328 327 326 324 323 323 321 321 320 320 319 320 321 321 322 321 323 324 325 326 325 324 325 324 323 323 323 323 322 323 322 323 323 323 323 320 321 322 319 318 320 318 318 317 319 319 319 322 320 317 312
317 318 319 320 321 321 322 323 325 327 327 326 326 327 325 322 323 322 322 321 320 320 320 321 321 321 321 322 322 322 323 323 322 322 322 323 322 322 323 320 322 322 321 321 322 322 320 321 321 321 321 317 318 316 317 319 318 318 318 319 316 314
317 318 320 321 320 321 321 322 322 325 326 327 326 325 324 324 322 322 322 322 322 322 321 321 320 322 322 322 322 323 323 323 322 322 322 322 321 321 321 321 320 321 320 320 320 320 319 320 319 319 320 318 317 317 317 316 316 316 315 317 317 316
319 318 320 320 321 322 322 323 323 324 325 325 324 325 323 322 323 324 323 322 322 322 322 321 322 323 322 323 322 322 322 322 322 322 321 320 320 320 321 321 319 320 318 318 320 319 318 318 319 319 318 319 316 314 317 315 315 316 315 316 317 318
320 319 321 321 322 322 323 323 323 324 324 324 324 324 323 323 322 322 321 322 323 322 323 323 322 324 323 323 323 323 322 322 323 323 322 321 320 320 320 320 319 318 318 318 319 317 319 318 318 318 317 319 316 315 315 317 317 317 318 318 316 316
Wind_Speed
9 9 8 9 9 9 11 14 13 14 14 14 13 13 12 12 11 11 10 9 6 6 6 7 7 7 9 7 7 7 8 8 9 9 9 9 9 10 9 9 8 7 8 7 6 6 6 5 5 4 4 4 4 4 2 3 3 2 2 3 3 4
8 9 9 7 6 7 9 10 10 10 10 11 12 12 10 9 9 8 9 7 5 5 4 5 5 7 6 7 7 7 5 6 7 7 8 8 8 8 9 8 7 7 8 6 2 2 3 4 4 4 4 2 3 2 3 3 3 2 2 2 3 5
9 8 8 6 5 6 8 7 9 8 8 9 10 9 7 8 7 6 6 5 4 4 4 4 4 4 5 6 7 7 5 5 4 4 6 7 7 8 8 7 8 8 6 3 1 2 2 2 2 2 1 2 2 2 2 3 3 2 2 2 2 7
8 9 6 6 5 5 6 7 6 7 6 6 6 5 4 6 6 6 5 4 3 4 4 3 4 8 7 4 6 7 6 4 4 3 2 4 6 6 7 8 9 6 2 1 2 1 2 2 2 2 1 1 2 2 3 3 3 3 2 3 2 8
7 6 5 3 3 5 4 4 6 6 5 5 5 5 5 6 6 5 5 3 4 4 4 3 4 4 4 4 4 3 3 3 3 3 3 2 2 1 2 3 3 3 2 2 2 2 2 2 2 2 1 1 1 2 2 3 3 3 3 2 3 7
8 9 6 5 3 6 6 5 6 6 7 5 6 5 5 5 5 4 4 4 4 4 4 3 3 4 4 4 4 3 3 3 4 3 4 3 2 2 1 2 1 2 2 1 1 2 2 2 1 1 1 1 1 1 2 3 3 3 3 2 4 6
9 9 8 6 5 5 5 5 6 6 6 6 6 6 4 4 3 4 5 5 5 4 4 4 4 4 4 4 4 4 3 3 3 3 2 3 3 2 1 2 1 1 0 1 1 1 1 1 1 1 1 0 1 1 1 3 3 3 3 2 4 8
4 4 5 7 4 4 4 6 6 6 6 6 5 5 4 4 4 4 4 4 4 4 5 4 5 4 4 4 4 4 4 3 3 3 2 2 3 3 3 2 2 1 1 1 1 0 0 1 1 0 1 1 1 1 1 1 2 2 2 2 3 7
7 7 6 7 6 5 5 6 7 7 6 6 5 3 3 3 4 4 4 4 4 3 3 4 4 4 3 4 5 5 5 4 4 4 4 3 3 4 3 3 2 1 0 1 0 0 0 1 0 1 2 2 1 1 1 2 2 3 3 2 3 6
7 7 7 6 4 6 6 6 6 5 4 5 4 3 3 3 3 3 3 3 2 2 3 2 2 2 3 4 5 4 4 4 5 5 5 5 4 4 3 3 3 2 1 1 0 0 1 0 1 2 3 3 3 2 1 2 2 3 3 2 2 4
6 4 5 6 6 6 7 6 5 4 5 5 4 4 4 4 4 3 2 2 1 2 1 1 1 2 2 3 2 2 2 3 4 4 4 4 4 4 3 3 3 2 2 1 1 1 0 1 0 2 3 4 3 2 1 1 2 3 2 2 2 2
7 8 8 8 8 7 6 6 6 5 5 4 5 5 4 4 3 2 2 2 1 3 2 2 3 4 3 2 3 3 3 4 3 3 3 3 3 3 3 3 2 2 1 2 1 1 0 0 1 1 3 3 3 3 2 2 2 2 2 2 2 3
11 10 9 9 7 6 5 5 6 5 5 4 4 4 4 3 2 2 4 1 2 2 1 4 3 1 1 1 2 1 2 3 2 2 2 2 3 3 3 3 2 2 2 2 1 2 0 0 1 1 0 1 1 2 1 2 2 2 2 2 2 3
9 10 9 7 6 5 6 5 5 5 5 5 5 4 3 3 4 3 1 2 3 3 3 1 3 2 2 1 2 4 4 4 3 2 2 2 3 2 2 2 2 2 2 2 2 1 1 1 1 2 1 0 1 1 1 2 1 1 2 2 2 3
8 8 8 7 7 6 6 5 5 5 5 5 4 4 3 2 2 2 2 2 2 3 2 2 2 4 3 2 3 4 5 4 2 2 2 2 2 2 2 2 2 2 2 1 2 1 1 1 1 1 1 0 1 1 1 1 1 2 2 1 1 2
8 8 7 7 7 6 6 5 5 5 5 5 3 3 3 3 4 4 4 3 3 3 4 5 5 5 5 3 2 5 4 2 3 3 3 3 3 3 3 3 3 2 2 3 3 3 1 1 0 1 1 0 0 1 1 2 2 2 1 1 2 1
10 9 7 8 7 6 6 6 5 5 5 4 4 4 3 3 3 4 4 4 3 3 3 3 4 3 2 2 4 3 2 2 2 2 3 3 3 2 3 4 4 3 1 1 1 1 1 1 1 1 1 1 1 1 1 2 1 1 0 1 2 2
9 9 8 7 7 7 6 6 5 4 5 4 4 4 4 3 3 3 3 2 2 2 2 2 2 2 1 1 2 2 1 2 3 3 3 3 2 1 4 4 4 3 2 1 1 1 0 1 1 1 2 2 2 1 2 1 1 0 1 2 2 2
10 10 8 8 8 7 7 5 5 6 5 5 4 4 4 4 3 3 2 2 2 2 2 1 1 1 2 2 3 2 1 2 2 2 2 3 2 3 2 2 4 5 4 4 5 4 2 2 2 2 2 2 1 3 2 2 1 1 0 1 1 1
9 9 8 7 7 7 6 5 6 6 6 5 5 5 4 4 4 4 3 2 2 2 3 2 1 1 1 1 2 1 0 2 3 2 2 2 2 2 2 4 4 7 6 3 4 2 3 2 2 2 1 1 1 1 1 1 2 3 2 2 1 1
9 9 8 7 7 7 6 6 4 4 5 5 6 6 5 4 4 3 3 2 2 2 2 2 2 2 1 1 1 1 1 2 2 1 0 1 1 1 1 3 5 4 4 4 2 3 3 3 4 3 2 1 1 1 1 2 1 1 2 2 2 2
9 9 9 9 8 7 5 3 4 4 5 5 5 5 5 4 3 3 3 2 1 1 2 3 3 2 1 2 1 1 1 2 2 2 1 0 2 2 2 3 5 4 3 5 4 4 3 4 4 3 3 3 3 2 2 2 2 1 2 1 1 1
7 7 8 7 7 6 3 2 3 4 5 5 3 4 5 4 4 4 2 2 1 1 1 2 3 3 2 1 1 1 2 2 2 2 1 1 3 4 3 4 5 4 4 2 2 2 3 2 2 2 0 2 3 4 4 4 3 1 1 2 2 2
7 6 6 5 6 6 6 5 5 5 4 4 6 5 6 5 5 5 4 2 2 0 1 2 3 4 3 2 1 2 2 2 3 1 1 1 2 4 4 3 3 2 3 3 3 3 1 1 2 3 4 3 0 2 3 4 2 2 1 2 2 2
7 6 6 7 8 9 9 8 7 7 8 8 6 5 6 5 4 4 4 3 3 2 1 2 3 3 3 3 2 2 2 2 2 2 1 1 1 2 3 3 2 2 3 2 3 2 2 2 1 3 2 2 3 4 2 2 2 2 4 2 4 3
7 6 7 8 9 9 8 8 9 8 7 6 6 5 5 5 4 3 3 2 2 2 2 1 1 3 4 4 4 3 2 2 2 2 2 1 1 2 3 4 3 2 2 2 2 3 3 4 3 2 0 2 3 2 2 2 3 2 5 7 5 6
8 7 7 8 9 8 8 6 6 6 7 7 7 4 3 3 4 3 3 3 2 2 2 2 2 2 3 3 3 3 3 3 3 3 2 2 2 1 2 2 2 3 3 2 2 3 3 4 3 2 2 2 2 2 2 2 1 3 3 5 5 6
6 7 7 8 8 7 8 5 5 6 6 6 6 7 6 5 4 4 4 3 2 2 2 2 3 3 2 2 2 3 3 3 3 3 2 3 3 2 2 2 1 1 2 2 3 2 3 3 4 4 2 2 3 2 2 2 1 1 2 4 4 5
7 6 6 7 7 5 5 7 5 6 7 5 7 7 6 5 5 4 5 3 3 2 2 3 3 3 3 3 2 2 2 3 2 3 2 3 3 3 3 3 3 3 3 3 0 1 2 3 2 3 4 3 3 3 4 2 2 1 3 6 5 4
8 5 5 7 6 7 6 5 5 7 9 8 7 6 6 6 5 4 6 4 3 2 2 3 4 4 3 3 3 3 2 3 3 2 2 3 3 3 2 3 3 2 2 2 2 2 4 4 3 3 4 5 4 4 4 1 3 2 3 2 6 6
9 7 6 5 7 7 6 5 5 7 9 10 9 9 8 6 6 5 5 4 3 2 2 3 3 4 4 3 3 3 3 3 3 2 2 2 2 3 3 2 2 3 2 2 2 4 4 4 4 5 5 5 3 2 2 3 4 3 3 5 7 7
8 8 6 6 6 6 5 3 2 5 8 9 10 8 9 9 8 7 6 5 3 3 3 3 3 4 4 4 3 3 3 3 3 2 3 2 2 3 2 2 2 2 3 3 3 4 4 5 4 4 4 3 3 4 4 4 3 3 5 6 7 8
6 5 4 4 4 5 5 5 4 5 5 6 7 8 8 8 7 7 6 6 5 4 3 3 3 4 4 4 3 3 3 3 3 4 3 3 3 3 2 2 3 4 4 4 3 4 5 4 4 5 5 3 3 3 4 2 1 2 3 5 7 8
6 4 4 5 5 6 5 5 5 4 5 6 6 6 7 8 6 6 5 6 6 5 4 4 3 3 3 3 4 4 4 4 5 4 4 4 4 4 3 2 3 4 4 3 3 5 5 5 5 5 4 5 4 4 3 2 2 2 3 5 6 7
6 6 6 7 5 6 5 5 4 3 3 4 6 6 6 6 7 6 4 5 5 5 5 4 3 3 3 4 4 4 4 4 4 4 4 4 3 4 4 3 4 4 4 3 4 4 4 4 4 4 5 5 5 4 4 3 3 3 2 1 3 7
8 8 6 6 5 6 6 6 6 6 5 5 5 6 6 6 5 6 6 6 6 6 5 5 4 4 4 4 4 4 4 4 4 4 4 4 4 3 4 4 4 4 4 3 3 5 4 5 6 6 5 4 5 5 4 4 4 4 4 3 3 4
7 3 4 6 7 6 6 7 7 7 6 5 6 8 8 9 8 5 4 3 4 5 7 5 4 4 5 4 4 4 4 4 3 4 4 4 4 4 3 4 4 4 4 3 4 4 3 5 4 4 4 4 5 5 4 4 4 4 4 3 3 2
Wind_Direction
147 141 132 127 133 134 136 135 137 139 134 128 128 130 128 129 133 135 136 123 126 140 136 133 140 127 128 130 120 132 131 127 127 128 132 128 128 129 128 125 122 114 102 88 79 74 69 64 56 47 57 56 125 185 155 154 159 150 163 143 161 127
142 140 138 132 135 140 142 143 143 140 138 133 132 134 139 143 145 140 126 135 145 140 143 138 132 131 131 133 124 84 92 127 131 134 133 127 125 126 124 124 120 106 98 89 76 92 90 75 45 31 65 105 190 146 152 165 171 170 159 156 170 112
137 131 113 115 136 135 141 143 142 142 133 137 136 141 141 142 140 135 148 149 151 149 145 138 137 134 126 109 107 115 104 81 77 121 131 132 128 123 122 118 109 96 91 117 155 71 64 65 65 23 114 143 107 140 144 166 185 188 184 133 191 121
116 112 141 137 125 140 138 138 136 139 134 130 125 114 137 144 147 146 143 138 146 144 143 155 129 127 122 136 121 120 109 102 73 38 159 149 137 131 124 113 88 89 96 54 52 55 70 69 63 46 63 107 105 123 168 179 200 196 206 158 171 143
125 106 97 124 115 123 126 134 130 118 109 125 134 147 165 157 155 144 145 135 141 144 153 155 145 148 147 142 140 136 146 161 148 161 119 177 136 142 133 110 111 81 57 19 25 38 18 67 62 56 56 53 96 122 173 185 206 214 201 185 145 156
137 140 142 127 151 159 154 153 135 137 142 149 153 161 165 164 147 139 141 145 154 157 160 165 146 149 141 148 147 153 157 160 161 162 182 158 159 155 127 96 67 77 61 10 23 27 37 20 76 72 66 64 111 146 180 182 194 212 220 201 137 160
136 139 142 147 163 161 178 160 152 159 154 163 166 171 169 150 159 155 155 162 165 166 162 158 167 158 154 159 159 162 164 170 162 165 169 149 146 130 96 81 57 58 45 33 19 50 82 95 11 54 118 140 122 149 183 178 186 205 211 197 130 162
38 109 137 141 136 194 174 166 161 167 169 170 173 177 172 174 161 161 164 174 178 172 165 166 166 171 164 165 169 167 161 163 162 156 157 161 147 148 147 141 144 194 235 51 35 51 130 115 106 327 160 174 185 180 191 188 192 204 209 198 174 162
176 175 165 142 159 194 191 178 179 175 176 181 179 179 180 164 162 167 171 178 182 172 175 181 179 168 171 172 172 173 161 165 168 164 159 163 174 159 161 167 164 160 97 38 83 170 354 71 143 180 192 173 202 181 182 205 198 200 211 205 195 140
170 182 163 147 171 194 201 193 185 179 176 180 182 179 168 168 163 181 173 178 165 191 194 194 160 160 179 182 181 168 173 167 171 171 178 174 174 179 166 167 166 168 166 171 215 105 301 60 151 165 188 188 185 209 188 208 189 205 207 206 177 135
166 188 176 163 181 197 202 195 190 176 189 184 177 182 185 178 178 189 160 135 67 236 223 20 69 199 220 189 178 175 197 187 180 183 195 180 184 182 174 179 172 174 183 195 181 185 296 19 7 168 173 195 186 196 191 199 198 193 212 199 188 170
165 200 188 183 190 194 192 192 188 182 191 174 165 193 189 190 182 174 149 75 156 237 73 11 237 227 213 184 195 181 196 202 184 183 195 189 180 189 189 177 165 152 167 195 187 167 59 332 71 132 178 187 186 197 194 176 198 186 203 207 198 179
189 197 190 192 187 178 179 183 175 187 180 171 178 182 192 187 134 89 74 161 228 256 123 203 233 277 349 260 43 265 202 230 221 207 182 194 181 188 197 184 173 182 176 183 190 142 152 82 115 108 246 165 208 217 190 192 186 192 199 204 203 190
191 190 193 192 185 178 179 172 173 178 177 168 174 177 191 131 108 92 81 179 214 170 150 76 312 287 277 164 159 234 231 209 209 196 179 193 197 198 204 209 206 208 169 191 170 153 195 161 137 154 148 217 219 241 234 208 178 189 206 215 203 203
184 187 183 190 190 180 174 169 170 168 162 163 157 172 156 130 122 154 193 227 236 194 183 188 212 278 242 191 176 232 222 213 198 180 177 183 202 178 179 193 202 212 160 159 174 141 208 147 166 147 118 230 228 192 195 207 211 216 205 205 222 203
175 177 181 184 181 168 155 149 151 145 144 144 138 131 111 106 128 147 151 140 151 150 167 195 203 209 228 177 194 220 216 195 149 145 153 166 199 194 172 178 187 196 181 172 179 160 189 182 163 101 103 240 7 299 236 196 198 212 188 223 217 204
169 161 155 159 146 131 129 131 127 127 124 125 123 114 108 120 134 137 147 151 154 152 182 183 188 183 207 164 202 215 195 155 143 150 163 183 201 173 177 188 181 166 177 158 218 170 156 176 148 122 101 48 32 353 352 12 359 329 137 219 223 210
156 152 154 145 135 122 118 116 118 120 123 122 110 116 124 129 121 122 137 127 133 133 177 158 159 168 182 242 252 240 157 144 141 149 193 210 193 141 212 198 156 103 58 117 83 26 29 247 178 131 99 71 46 34 40 41 55 271 247 214 214 235
148 151 143 129 116 109 109 105 114 123 121 112 106 103 117 110 98 99 94 108 117 126 128 166 216 247 252 244 244 242 205 132 134 155 188 194 159 167 142 98 114 121 103 127 166 171 183 195 164 152 135 94 69 60 42 50 60 87 320 308 294 257
150 143 132 128 127 128 134 143 142 138 128 119 120 117 113 105 109 103 99 97 106 116 123 131 113 134 225 253 268 285 58 143 147 162 193 197 174 163 153 132 118 124 145 155 79 147 173 158 121 145 111 82 69 47 79 48 67 73 53 28 30 45
153 148 148 147 149 149 153 153 154 143 123 128 123 119 112 109 102 93 93 103 107 108 119 121 117 137 147 309 317 353 42 82 65 72 10 259 236 88 99 147 121 146 167 120 167 153 167 193 165 161 167 184 137 29 324 313 227 156 120 87 64 56
155 159 163 167 157 157 162 166 154 139 127 120 127 126 116 108 100 94 96 93 99 109 117 115 113 110 95 30 26 34 56 77 106 98 88 68 106 124 139 144 148 156 205 190 166 182 172 191 187 208 197 198 205 188 204 226 230 202 350 35 45 41
156 154 167 164 147 138 132 102 121 132 126 107 64 84 101 102 108 104 88 101 113 149 150 121 123 131 129 111 69 53 77 86 89 113 160 156 137 129 128 145 166 167 177 154 162 181 173 248 225 175 255 237 219 229 185 212 199 169 7 2 353 355
154 154 143 152 126 108 98 89 81 104 98 106 121 111 106 114 113 110 93 70 59 335 219 135 127 135 133 131 119 59 67 108 124 119 76 149 111 124 136 140 171 202 222 196 172 171 147 90 324 193 203 239 55 269 229 192 204 101 15 299 323 332
156 152 147 147 133 120 112 109 113 108 106 100 107 112 113 95 90 98 100 70 38 10 29 133 144 141 125 120 111 85 65 76 99 109 144 130 125 94 103 116 151 183 216 240 178 158 137 83 356 306 274 178 191 219 243 73 194 108 24 22 15 330
151 151 153 150 138 130 136 145 145 141 133 125 121 128 121 119 115 97 76 70 52 25 21 69 119 126 114 124 124 123 112 108 109 115 105 75 87 129 142 168 160 184 169 184 196 180 154 135 129 120 7 358 348 336 315 144 227 157 81 49 31 39
161 156 153 148 142 132 144 165 166 147 136 132 123 97 91 92 101 95 91 79 63 30 22 69 76 73 103 115 116 115 116 108 100 106 104 111 104 100 97 80 120 168 152 144 223 214 195 153 149 163 168 87 48 36 17 188 194 123 151 62 37 33
148 145 153 146 145 145 149 153 149 125 120 125 125 129 128 111 100 108 99 84 88 64 36 45 72 75 70 77 84 108 117 121 119 101 99 90 97 109 124 125 131 137 140 151 159 162 150 164 211 157 165 96 75 43 42 63 352 216 130 140 107 91
131 135 140 131 125 132 138 154 158 130 116 108 116 122 123 122 119 116 104 90 78 76 72 55 57 73 71 70 72 77 80 89 82 80 85 100 107 106 109 131 141 138 134 135 159 132 153 135 186 156 170 121 130 93 61 20 42 185 147 136 108 103
115 108 115 119 123 135 148 153 151 135 128 126 122 123 129 126 123 121 106 97 94 89 83 85 72 64 72 76 79 83 79 77 80 75 51 69 89 94 96 103 104 107 125 124 123 100 86 112 125 136 176 148 147 130 102 93 82 140 133 127 136 125
103 117 128 132 143 149 154 168 152 141 131 132 136 138 134 129 126 126 117 107 100 87 62 76 84 74 59 66 78 81 84 81 70 64 72 78 71 74 76 75 81 81 73 78 100 113 116 106 111 122 135 153 157 154 160 137 142 156 145 129 119 113
112 132 146 151 152 150 144 131 95 138 138 142 148 149 145 141 142 135 128 120 115 111 95 87 82 85 65 50 57 64 76 83 78 70 67 49 58 81 81 89 88 82 79 70 86 97 103 111 112 113 118 120 113 117 119 125 124 156 154 140 131 125
144 132 113 120 133 124 123 133 161 160 144 147 150 147 140 136 140 136 135 134 139 125 127 109 90 89 68 50 56 64 55 68 67 46 36 37 54 52 78 85 85 82 81 82 83 97 103 97 97 102 102 85 91 91 89 73 118 150 140 144 138 131
57 62 122 152 156 148 139 151 172 175 149 153 151 144 138 139 138 134 140 141 140 134 123 114 109 86 72 66 62 52 51 61 60 58 45 39 36 31 23 69 82 81 78 71 80 86 93 91 83 88 103 106 91 89 81 72 88 113 136 159 155 141
164 175 183 179 161 152 152 160 159 162 164 156 145 143 138 136 138 137 140 139 135 132 128 129 116 106 99 86 79 72 64 65 65 64 59 53 46 43 27 42 62 63 63 56 68 78 82 88 90 87 84 91 97 89 79 74 67 68 81 101 145 145
181 189 191 164 173 170 164 155 155 160 174 162 151 140 132 132 134 142 152 153 149 140 133 130 124 121 108 108 104 100 96 91 94 90 85 79 70 63 44 54 64 62 65 31 70 78 85 86 85 82 81 82 91 84 75 77 76 67 61 62 110 156
185 147 198 187 187 175 154 155 162 162 166 172 169 150 143 143 143 147 143 159 156 148 137 137 132 127 123 122 126 129 126 126 120 115 107 100 94 84 78 74 76 75 72 55 66 67 67 91 95 101 97 83 93 97 87 78 79 78 73 61 65 78